Tracking 20093 objects as of 16-Dec-2019
HD Live streaming from Space Station
objects crossing your sky now

CZ-2D DEB

Track CZ-2D DEB now!
10-day predictions


NORAD ID: 43038
Int'l Code: 2017-077E
Perigee: 446.2 km
Apogee: 496.7 km
Inclination: 97.3 °
Period: 93.9 minutes
Semi major axis: 6842 km
RCS: Unknown
Launch date: December 3, 2017
Source: People's Republic of China (PRC)
Launch site: Jiuquan Satellite Launch Center, China (JSC)

Note: This is SATELLITE DEBRIS
aabbcc
Your satellite tracking list
Your tracking list is empty




NASA's NSSDC Master Catalog

Two Line Element Set (TLE):
1 43038U 17077E   19349.92739319 +.00003093 +00000-0 +94888-4 0  9995
2 43038 097.2677 061.7225 0036916 163.7139 196.5300 15.33853493113559
Source of the keplerian elements: AFSPC